User: anonymous   Login
Location: Bamazo
(6.7448°N, 10.8189°W)
Time: 11:35:49
(UTC+00:00)
Language:

Palapa 6 Rocket - Orbit

View from above orbital plane
View from above orbital plane
View from above satellite
View from above satellite

Ground track
Ground track

The orbit data is extracted from the following two-line orbital elements,

1 20571U 90034B   21162.55428796  .00000470  00000-0  18470-4 0  9994
2 20571  22.7481 125.6576 0505784 271.6386  82.6224 14.12612768598492
Epoch (UTC): 11 June 2021 13:18:10
Eccentricity: 0.0505784
inclination: 22.7481°
perigee height: 485 km
apogee height: 1216 km
right ascension of ascending node: 125.6576°
argument of perigee: 271.6386°
revolutions per day: 14.12612768
mean anomaly at epoch: 82.6224°
orbit number at epoch: 59849

The dashed part of the orbit path shows where the satellite is in the earth's shadow,  

DLR